Preview of NWS' New Version of Forecast
This preview is not operational and should not be used for support decisions.

Regional Weather Roundup (RWR)

Issued by National Weather Service (NWS)

                            
000
ASUS42 KTBW 241515
RWRFL 
FLORIDA REGIONAL WEATHER ROUNDUP
NATIONAL WEATHER SERVICE TAMPA BAY RUSKIN FL
1100 AM EDT MON JUN 24 2019

NOTE: "FAIR" INDICATES FEW OR NO CLOUDS BELOW 12,000 FEET WITH NO
SIGNIFICANT WEATHER AND/OR OBSTRUCTIONS TO VISIBILITY.

FLZ001>010-012>015-112-114-115-241600-
PANHANDLE FLORIDA
  
CITY           SKY/WX    TMP DP  RH WIND       PRES   REMARKS
PENSACOLA      PTSUNNY   89  78  70 SW14G28   30.00S HX 103           
PENSACOLA NAS  PTSUNNY   88  79  74 SW9G23    30.01R HX 103           
MILTON NAS     FAIR      87  76  69 SW13      30.01S HX  97           
CRESTVIEW      FAIR      89  73  59 SW16G23   30.03S HX  97           
DUKE FIELD     FAIR      89  74  60 W15       30.01R HX  97           
VALPARAISO     PTSUNNY   88  75  65 SW20      30.01S HX  98           
MARY ESTHER    MOSUNNY   88  78  71 SW12      30.00S HX 101           
TRI COUNTY     FAIR      88  75  65 SW14      30.02S HX  97           
PANAMA CITY    PTSUNNY   87  75  67 SW16      30.01S HX  96           
TYNDALL AFB    SUNNY     88  77  71 W14       30.02  HX 100           
APALACHICOLA   FAIR      89  76  65 W12       30.03S HX 100           

STATION/POSITION SKY/WX   TEMP    WIND        PRES    WAVE   SWELL
                          AIR SEA DIR/SP/G            HT/PER HT/PER
                          (F)     (DEG/KT/KT) (MB)    (FT/S) (FT/S)
PANAMA CITY BEAC           85 85  230/ 16/ 18 1017.2
TOWER C          NOT AVBL

$$
FLZ011-016>038-118-127-128-134-139-239-241600-
NORTH FLORIDA
  
CITY           SKY/WX    TMP DP  RH WIND       PRES   REMARKS
MARIANNA       FAIR      89  74  60 SW14      30.00S HX  98           
TALLAHASSEE    FAIR      89  76  65 S8        30.02F HX 100           
PERRY          FAIR      89  78  70 SW9       30.05S HX 102           
LIVE OAK       MOSUNNY   86  77  74 S5        30.04S HX  97           
CROSS CITY     FAIR      88  74  61 SW7       30.05S HX  96           
LAKE CITY      FAIR      86  72  62 W5        30.05F                  
GAINESVILLE    FAIR      86  74  67 W5        30.07S                  
PALATKA        FAIR      88  75  66 W7        30.05S HX  97           
MAYPORT NAS    FAIR      88  74  63 W7        30.03S HX  96           
JACKSONVILLE   FAIR      87  76  69 NW5       30.03  HX  97           
JAX NAS        FAIR      89  73  59 N6        30.04S HX  97           
JAX CECIL      SUNNY     93  75  55 VRB5      30.03F HX 104           
FERNANDINA BEA FAIR      87  75  68 NW6       30.03S HX  95           
ST AUGUSTINE   FAIR      86  77  74 VRB3      30.05S HX  97           

STATION/POSITION SKY/WX   TEMP    WIND        PRES    WAVE   SWELL
                          AIR SEA DIR/SP/G            HT/PER HT/PER
                          (F)     (DEG/KT/KT) (MB)    (FT/S) (FT/S)
SHELL POINT      NOT AVBL
KEATON BEACH               84     260/  9/ 10 1017.7R
CEDAR KEY                  84     260/  5/  6 1017.6R
FERNANDINA                 87 85  290/  6/  9 1017.7
30.7N   81.3W                 82                N/A     1/ 9
MAYPORT                    84 84  320/  6/  8 1017.4
ST AUGUSTINE               83 80   30/  6/  7 1017.4S

$$
FLZ040-043>046-052-053-057-058-063-144-241600-
INTERIOR CENTRAL FLORIDA
  
CITY           SKY/WX    TMP DP  RH WIND       PRES   REMARKS
OCALA          FAIR      86  75  69 W5        30.06S HX  95           
LEESBURG       FAIR      85  76  74 S6        30.07S                  
SANFORD        FAIR      87  74  64 N5        30.05S HX  95           
ORLANDO EXEC   FAIR      88  70  55 VRB3      30.05S                  
ORLANDO INTL   FAIR      88  69  53 VRB3      30.05S                  
KISSIMMEE      FAIR      88  71  57 W6        30.07S                  
WINTER HAVEN   FAIR      88  71  57 NW6       30.07S                  
LAKELAND       MOSUNNY   86  72  62 CALM      30.07S                  
BARTOW         SUNNY     88  72  58 W7        30.06S                  
SEBRING        FAIR      89  76  65 S3        30.06S HX  99           
OKEECHOBEE     FAIR      86  77  74 W3        30.05S HX  97           

$$
FLZ041-047-054-059-064-141-147-241600-
EAST CENTRAL FLORIDA
  
CITY           SKY/WX    TMP DP  RH WIND       PRES   REMARKS
ORMOND BEACH   SUNNY     86  77  74 W6        30.04S FOG     HX  97   
DAYTONA BEACH  FAIR      87  78  74 W6        30.04S HX 100           
DELAND         FAIR      88  73  62 W3        30.05S HX  96           
NEW SMYRNA BEA SUNNY     88  75  66 SW7       30.06R HX  97           
JFK SPACE CTR  FAIR      87  64  45 NW6       30.04S                  
TITUSVILLE     SUNNY     90  75  62 NW6       30.06R HX 100           
CAPE CANAVERAL FAIR      87  -3   3 NW9       30.04R                  
PATRICK AFB    FAIR      86  78  75 NW6       30.05R HX  98           
MELBOURNE      FAIR      89  77  67 NE7       30.04R HX 101           
VERO BEACH     FAIR      91  76  61 VRB6      30.05R HX 103           
FT PIERCE      FAIR      91  74  57 W7        30.04R HX 100           
STUART         MOSUNNY   90  75  62 W9        30.05S HX 100           

STATION/POSITION SKY/WX   TEMP    WIND        PRES    WAVE   SWELL
                          AIR SEA DIR/SP/G            HT/PER HT/PER
                          (F)     (DEG/KT/KT) (MB)    (FT/S) (FT/S)
TRIDENT PIER               85 75  290/  3/  6 1018.8
28.4N   80.5W                 78                N/A     1/ 9
27.5N   80.2W                 82                N/A     1/ 9

$$
FLZ050-056-061-142-242-148-248-149-249-151-251-155-255-
160-260-241600-
WEST CENTRAL FLORIDA
  
CITY           SKY/WX    TMP DP  RH WIND       PRES   REMARKS
CRYSTAL RIVER  FAIR     N/A N/A N/A S3        30.06S                  
INVERNESS      PTSUNNY   88  79  74 CALM      30.06S HX 102           
BROOKSVILLE    FAIR      88  74  63 W5        30.07R HX  96           
CLEARWATER AIR FAIR      86  72  62 W6        30.06S                  
ST PETE CLEARW FAIR      87  73  62 W6        30.06R                  
TAMPA INTL     FAIR      86  77  74 SW5       30.07R HX  97           
PLANT CITY       N/A    N/A N/A N/A MISG        N/A                   
MACDILL AFB    PTSUNNY   85  77  75 S7        30.06S HX  96           
PETER O KNIGHT CLOUDY    88  79  74 S6        30.06S HX 102           
ST PETERSBURG  FAIR      86  76  71 CALM      30.04S HX  96           
SARASOTA       FAIR      87  76  69 W7        30.05R HX  97           
VENICE         FAIR      88  79  74 VRB6      30.07S HX 102           

STATION/POSITION SKY/WX   TEMP    WIND        PRES    WAVE   SWELL
                          AIR SEA DIR/SP/G            HT/PER HT/PER
                          (F)     (DEG/KT/KT) (MB)    (FT/S) (FT/S)
27.3N   84.2W                 85                N/A     1/ 7
CLEARWATER BEACH           85 88  220/  6/  7 1018.1
MIDDLE TAMPA BAY           85     250/  5/  7 1018.1
VENICE                     85 86  240/  5/  6 1018.1R

$$
FLZ066-069-070-075>078-162-262-165-265-241600-
SOUTHWEST FLORIDA AND KEYS
  
CITY           SKY/WX    TMP DP  RH WIND       PRES   REMARKS
PUNTA GORDA    FAIR      89  73  59 W7        30.07S HX  97           
FT MYERS       FAIR      89  69  51 NW5       30.05S                  
SOUTHWEST INTL FAIR      88  73  61 SW3       30.05S HX  95           
NAPLES         FAIR      89  75  63 SW7       30.05S HX  99           
IMMOKALEE      FAIR      91  72  52 W5        30.03S HX  98           
MARATHON       FAIR      89  76  65 S5        30.05R HX 100           
KEY WEST NAS   FAIR      88  76  67 CALM      30.05S HX  99           
KEY WEST INTL  FAIR      86  77  74 S5        30.06R HX  97           

STATION/POSITION SKY/WX   TEMP    WIND        PRES    WAVE   SWELL
                          AIR SEA DIR/SP/G            HT/PER HT/PER
                          (F)     (DEG/KT/KT) (MB)    (FT/S) (FT/S)
NAPLES                     91 89              1017.9
DRY TORTUGAS     NOT AVBL

$$
FLZ067-068-071>074-168-172>174-241600-
SOUTHEAST FLORIDA 
  
CITY           SKY/WX    TMP DP  RH WIND       PRES   REMARKS
W PALM BEACH   FAIR      90  75  61 W10       30.05R HX 100           
BOCA RATON     SUNNY     93  77  59 W9        30.04S HX 107           
FT LAUDER-EXEC FAIR      90  74  59 W7        30.04S HX  99           
FT LAUDERDALE  FAIR      90  74  59 W8        30.04S HX  99           
POMPANO BEACH  FAIR      91  74  57 SW9       30.04S HX 100           
PEMBROKE PINES FAIR      91  74  57 W8        30.06S HX 100           
OPA LOCKA      FAIR      90  75  61 W8        30.05S HX 100           
MIAMI          FAIR      91  71  51 W5        30.05S HX  97           
WEST KENDALL   FAIR      91  74  57 W6        30.04F HX 100           
HOMESTEAD      FAIR      90  73  56 NW5       30.03F HX  98           

STATION/POSITION SKY/WX   TEMP    WIND        PRES    WAVE   SWELL
                          AIR SEA DIR/SP/G            HT/PER HT/PER
                          (F)     (DEG/KT/KT) (MB)    (FT/S) (FT/S)
VIRGINIA KEY               87 90  220/  7/  9 1017.1
LAKE WORTH                 86 83  250/  6/ 10 1018.4
FOWEY ROCKS                87 85  230/  6/  6 1017.8F
SETTLEMENT POINT           85     260/ 11/ 12 1017.8R

$$